Starlink 36157

operational
NORAD ID: 66933 Int'l Des: 2025-286 Owner: SPXS Country: US Constellation: starlink
LEOCIRCULAR

Starlink 36157について

説明を読み込み中...

リアルタイム位置

3D地球を読み込み中...

次回通過

高度履歴

Altitude vs Time

uPlot chart will show altitude changes over time

軌道要素

1 66933U 25286J 25347.58336806 -.01225087 46032-3 -29180-2 0 9997
2 66933 53.1573 46.4257 0000928 59.3664 232.0037 15.96004054 2129
Epoch: Dec 13, 2025 • Age: 19 hours

現在のステータス

高度 292.4 km
速度 7.73 km/s
衛星直下点 -2.44°S, 4.43°E
打ち上げ日 Dec 7, 2025
運用期間 6 days
タイプ internet

技術仕様

分類 Payload
質量 575.00 kg
乾燥質量 530.00 kg
総質量 575.00 kg
長さ 0.30 m
直径 4.10 m
スパン 29.00 m
形状 Box + pan
製造者 SPXS
バスタイプ Starlink V2MO
フェーズステータス In Orbit
所有者/国 SPXS/US

大規模コンステレーション

Loading constellations...